Location: Alafon
(8.4500°N, 4.2333°E)
Time: 22:40:02
(UTC+00:00)

Vanguard 2 - Pass Details

Date: 11 August 2021
Orbit: 553 x 2937 km, 32.9° (Epoch: 26 September)

Event Time Altitude Azimuth Distance (km) Brightness Sun altitude
Rises 18:20:37 0° 213° (SSW) 6,770 12.6 -5.5°
Reaches altitude 10° 18:26:52 10° 200° (SSW) 5,616 12.0 -7.0°
Maximum altitude 18:38:47 24° 154° (SSE) 3,976 10.8 -9.8°
Enters shadow 18:46:36 13° 112° (ESE) 4,121 10.6 -11.7°
Drops below altitude 10° 18:47:57 10° 106° (ESE) 4,278 - -12.0°
Sets 18:51:46 0° 92° (E) 4,900 - -12.9°
